Regional Weather Roundup
Issued by NWS

Home | Current Version | Previous Version | Graphics & Text | Print | Product List | Glossary On
Versions: 1 2 3 4 5 6 7 8 9 10 11 12 13 14 15 16 17 18 19 20 21 22 23 24 25 26 27 28 29 30 31 32 33 34 35 36 37 38 39 40 41 42 43 44 45 46 47 48 49 50
000
ASUS45 KBOU 181507
RWRCO

WEATHER ROUNDUP FOR COLORADO
NATIONAL WEATHER SERVICE DENVER/BOULDER CO
800 AM MST THU DEC 18 2014

NOTE: "FAIR" INDICATES FEW OR NO CLOUDS BELOW 12000 FEET WITH NO
SIGNIFICANT WEATHER AND/OR OBSTRUCTIONS TO VISIBILITY.

COZ001>005-013-030-031-181600-
...NORTHWEST COLORADO...

CITY           SKY/WX    TMP DP  RH WIND       PRES   REMARKS
CRAIG          FOG       26  24  92 CALM      30.12R VSB 1/4
HAYDEN         CLOUDY    21  19  93 CALM      30.10R
MEEKER         CLOUDY    25  22  88 CALM      30.11R
MOUNT WERNER   NOT AVBL
STEAMBOAT SPGS CLOUDY    24  22  96 CALM      30.10R
WALDEN         CLOUDY     1  -4  78 CALM      30.08R VSB 1/4
$$

COZ006>008-011-181600-
...WEST CENTRAL VALLEYS...

CITY           SKY/WX    TMP DP  RH WIND       PRES   REMARKS
GRAND JUNCTION CLOUDY    33  32  96 N6        30.12R WCI  28
MONTROSE       LGT SNOW  32  32 100 CALM      30.13R FOG
EAGLE          LGT SNOW  27  25  93 CALM      30.13R FOG
RIFLE          LGT SNOW  32  31  96 CALM      30.11R FOG
DELTA          LGT SNOW  35  34  98 CALM      30.13R
NUCLA          LGT SNOW  32  32 100 SE5       30.16R WCI  27
$$

COZ017>023-064>068-181600-
...SOUTHWEST COLORADO...

CITY           SKY/WX    TMP DP  RH WIND       PRES   REMARKS
DURANGO        CLOUDY    29  28  96 CALM      30.12R
CORTEZ         CLOUDY    32  32 100 CALM      30.13R FOG
PAGOSA SPRINGS CLOUDY    28  28  99 CALM      30.12R FOG
TELLURIDE      PTCLDY   N/A N/A N/A CALM      30.10R
WOLF CREEK PAS SNOW      10  10 100 MISG      30.06R VSB 1/2
$$

COZ009-010-012-014-032>034-037-058>063-181600-
...CENTRAL COLORADO...

CITY           SKY/WX    TMP DP  RH WIND       PRES   REMARKS
ASPEN          FLURRIES  23  18  81 S6        30.06R WCI  16
BUENA VISTA    PTCLDY    16  11  83 CALM      30.07R
COPPER MTN     LGT SNOW  18  10  73 W13       30.03R WCI   4
BERTHOUD PASS  CLOUDY     9   1  72 MISG      30.02R
COTTONWOOD PAS PTCLDY    27  14  59 W3        30.03R
GUNNISON       CLOUDY    21  18  86 CALM      30.11R
KREMMLING      LGT SNOW  14  12  92 CALM      30.12R
LEADVILLE      CLOUDY     9   5  84 NE6       30.03R WCI  -1
MONARCH PASS   CLOUDY    12  10  92 MISG      30.12R
SALIDA         PTCLDY    22  17  78 N9        30.14R WCI  12
SUNLIGHT       LGT SNOW N/A N/A N/A CALM      30.07R
WILKERSON PASS MOCLDY    14  12  92 NW8       30.03S WCI   3
$$

COZ069>075-181600-
...SAN LUIS VALLEY/SANGRE DE CRISTO MOUNTAINS...

CITY           SKY/WX    TMP DP  RH WIND       PRES   REMARKS
ALAMOSA        CLOUDY    25  22  88 CALM      30.09R
LA VETA PASS   CLOUDY    19  18  93 S13G22    30.01S FOG     WCI   7
SAGUACHE       CLOUDY    21  19  93 NW9       30.10R WCI  11
$$

COZ035-036-038>040-181600-
...NORTHERN COLORADO FRONT RANGE...

CITY           SKY/WX    TMP DP  RH WIND       PRES   REMARKS
DENVER INTL AP MOCLDY    26  24  92 CALM      30.02R FOG
DMNS CITY PARK   N/A     25  24  96 SW2       30.04R
AURORA         MOCLDY    26  26  99 E2        30.03R
FRONT RANGE AP NOT AVBL
ERIE MUNI ARPT   N/A     19  17  93 CALM      30.03S
BOULDER MUN AP CLEAR     27  23  86 S3        30.03R
CENTENNIAL     MOCLDY    25  25 100 CALM      30.02R
BROOMFIELD     MOCLDY    28  23  80 MISG      30.03R
FORT COLLINS   PTCLDY    25  21  86 CALM      30.04R
LONGMONT       PTCLDY    21  18  88 CALM      30.06R
$$

COZ041-046-047-076>085-087-088-181600-
...PIKES PEAK/PALMER DIVIDE AND SOUTHERN FOOTHILLS...

CITY           SKY/WX    TMP DP  RH WIND       PRES   REMARKS
COLO. SPRINGS  MOCLDY    28  26  92 CALM      30.03R
A. F. ACADEMY  CLOUDY    27  27  99 N3        30.02R
ELLICOTT       NOT AVBL
FALCON         MOCLDY    28  27  96 W3        30.03R
FORT CARSON    PTCLDY    25  25  99 N5        30.02R WCI  19
LIMON          PTCLDY    18  15  88 CALM      30.04R
MONUMENT HILL  CLEAR     27  25  93 S8        30.00R WCI  18
TRINIDAD       CLEAR     26  21  81 W10       30.04R WCI  16
$$

COZ042>045-048>051-090-091-181600-
...NORTHEAST COLORADO...

CITY           SKY/WX    TMP DP  RH WIND       PRES   REMARKS
GREELEY ARPT   PTCLDY    16   9  73 CALM      30.03S
AKRON          PTCLDY    21  19  92 W12       30.03R FOG     WCI   9
BURLINGTON     PTCLDY    15  11  83 W8        30.05R WCI   4
WRAY           CLOUDY    17  15  93 SW5       30.08R VSB 1/4 WCI   9
STERLING       PTCLDY    14  12  92 CALM      30.05R
HOLYOKE        NOT AVBL
FORT MORGAN    MOCLDY    18  16  89 W6        30.05R WCI  10
$$

COZ086-089-092>099-181600-
...SOUTHEAST COLORADO...

CITY           SKY/WX    TMP DP  RH WIND       PRES   REMARKS
PUEBLO         NOT AVBL
LA JUNTA       CLEAR     24  20  84 W6        30.07R WCI  17
LAMAR          CLEAR     26  25  96 SW3       30.09R
SPRINGFIELD      N/A     24  24 100 N5        30.07S WCI  18
$$



USA.gov is the U.S. government's official web portal to all federal, state and local government web resources and services.